User: anonymous   Login
Location: *
(29.1167°S, 130.0000°E)
Time: 12:04:26
(UTC+00:00)
Language:

Palapa 6 Rocket - Orbit

View from above orbital plane
View from above orbital plane
View from above satellite
View from above satellite

Ground track
Ground track

The orbit data is extracted from the following two-line orbital elements,

1 20571U 90034B   19258.59798463  .00000420  00000-0  15196-4 0  9999
2 20571  22.7456 320.7095 0507378  60.3665 304.6359 14.12312454508128
Epoch (UTC): 15 September 2019 14:21:05
Eccentricity: 0.0507378
inclination: 22.7456°
perigee height: 484 km
apogee height: 1218 km
right ascension of ascending node: 320.7095°
argument of perigee: 60.3665°
revolutions per day: 14.12312454
mean anomaly at epoch: 304.6359°
orbit number at epoch: 50812

The dashed part of the orbit path shows where the satellite is in the earth's shadow,  

DLR